Location: Campavaglio
(41.1333°N, 9.2333°E)
Time: 22:34:43
(UTC+00:00)

NOSS 3-1 (C) - Pass Details

Date: 07 June 2020
Orbit: 752 x 1456 km, 63.4° (Epoch: 15 June)

Event Time Altitude Azimuth Distance (km) Brightness Sun altitude
Rises 01:09:03 0° 324° (NW) 3,998 7.1 -21.4°
Reaches altitude 10° 01:11:36 10° 325° (NW) 3,127 6.5 -21.2°
Maximum altitude 01:19:20 90° 41° (NE) 1,333 4.1 -20.5°
Drops below altitude 10° 01:28:07 10° 148° (SSE) 3,526 6.1 -19.7°
Sets 01:31:09 0° 148° (SSE) 4,531 6.7 -19.4°
